sat.trackr.live / text

‹ back to catalog

QIANFAN-71

NORAD 62801 · 2025-016S

PAYLOAD ACTIVE UNKNOWN

§ Identity

Operator
Country
PRC
Launch date
2025-01-23
Launch site
TAISC
Launch vehicle
Mass (kg)
RCS (m²)

External: N2YO · Heavens-Above · Gunter

§ Orbital elements

Epoch: 2026-05-25T04:01:40.734912Z

Period
106.59 min
Inclination
88.9723°
Eccentricity
0.0013575
Mean motion
13.51013590 rev/d
Perigee alt
1,058.4 km
Apogee alt
1,078.6 km
Semi-major
7,446.7 km
B*
1.4862e-4
RAAN
86.1213°
Arg perigee
232.8059°
Mean anomaly
127.1853°
Rev number
6,930

§ Raw data

QIANFAN-711 62801U 25016S   26145.16783258  .00000108  00000+0  14862-3 0  99912 62801  88.9723  86.1213 0013575 232.8059 127.1853 13.51013590 69300

JSON: /api/v1/satellites/62801 · /tle

For live sub-satellite position, see the globe view (requires WebGL).

§ Visibility from observer

Set your observer location to see the next 7 days of passes ≥ 10°. The values pass through the URL so the page stays shareable.

No JS? Fill the form by hand. The geolocation button needs JavaScript.